www.pogodaiklimat.ru

Погода и климат >> Архив погоды >> Французская Гвиана >> Сен-Лоран-дю-Марони


ПОГОДА в Сен-Лоран-дю-Марони

  • Прогноз погоды в Сен-Лоран-дю-Марони
  • Монитор погоды в Сен-Лоран-дю-Марони

АРХИВ ПОГОДЫ в Сен-Лоран-дю-Марони

Время (UTC), дата Ветер
(напр.,м/с)
 
Видим.   Явления Облачность Т
(С)
Тd
(С)
f
(%)
Тe
(С)
Тes
(С)
Комфортность P
(гПа)
Po
(гПа)
Тmin
(С)
Tmax
(С)
R
(мм)
R24
(мм)
S
(см)
00 10.09 штиль 0 н/о н/о +24.3 +23.6 96 +33 +33 очень
душно
1013.8 1013.2 +23.1 +35.9 0.2
03 10.09 Ю 1 н/о н/о +24.2 +23.3 95 +32 +32 очень
душно
1014.6 1014.0 +23.1 +35.9
06 10.09 Ю 1 н/о н/о +24.2 +23.3 95 +32 +32 очень
душно
1012.6 1012.0 +23.1 +35.9
09 10.09 ЮЗ 1 н/о н/о +23.3 +22.5 95 +32 +32 очень
душно
1012.9 1012.3 +23.1 +35.9
12 10.09 ЮВ 3 н/о н/о +28.6 +25.0 81 +41 +41 опасность
перегрева
1014.3 1013.7 +23.2 +35.9 0.2
15 10.09 ЮВ 4 н/о н/о +33.1 +24.0 59 +45 +45 опасность
перегрева
1013.7 1013.1 +23.2 +35.9
18 10.09 ЮВ 3 н/о н/о +35.1 +22.4 48 +44 +44 опасность
перегрева
1010.6 1010.0 +23.2 +35.9
21 10.09 СВ 1 н/о н/о +29.7 +22.9 67 +40 +40 очень
душно
1009.9 1009.3 +23.2 +35.2
00 11.09 СВ 1 н/о н/о +25.4 +23.5 89 +34 +34 очень
душно
1011.6 1011.0 +23.2 +35.2
03 11.09 В 1 н/о н/о +24.9 +23.7 93 +34 +34 очень
душно
1012.6 1012.0 +23.2 +35.2
06 11.09 ЮВ 1 н/о н/о +24.0 +23.3 96 +32 +32 очень
душно
1011.1 1010.5 +23.2 +35.2
09 11.09 В 1 н/о н/о +23.3 +22.8 97 +32 +32 очень
душно
1011.7 1011.1 +23.2 +35.2
12 11.09 ЮВ 3 н/о н/о +28.7 +24.3 77 +40 +40 очень
душно
1013.4 1012.8 +23.1 +35.2
15 11.09 ЮВ 3 н/о н/о +33.7 +22.2 51 +43 +43 опасность
перегрева
1012.3 1011.7 +23.1 +35.2
18 11.09 В 3 н/о н/о +35.5 +20.2 41 +42 +42 опасность
перегрева
1009.5 1008.9 +23.1 +36.0
21 11.09 СВ 3 н/о н/о +30.1 +23.5 68 +41 +41 опасность
перегрева
1009.3 1008.7
00 12.09 СВ 2 н/о н/о +25.7 +23.9 90 +35 +35 очень
душно
1010.9 1010.3
03 12.09 В 2 н/о н/о +24.8 +23.2 91 +33 +33 очень
душно
1011.6 1011.0
06 12.09 Ю 1 н/о н/о +23.3 +22.1 93 +32 +32 очень
душно
1010.1 1009.5
09 12.09 штиль 0 н/о н/о +22.0 +21.3 96 +29 +29 очень
душно
1010.7 1010.1 +22.0 +30.0 0.2
12 12.09 ЮВ 2 н/о н/о +28.4 +23.3 74 +38 +38 очень
душно
1012.9 1012.3 +21.8 +28.4
15 12.09 В 3 н/о н/о +32.8 +23.2 57 +43 +43 опасность
перегрева
1012.2 1011.6 +21.8 +32.8
18 12.09 В 3 н/о н/о +35.2 +21.5 45 +43 +43 опасность
перегрева
1009.4 1008.8 +21.8 +35.5
21 12.09 СВ 3 н/о н/о +30.7 +23.1 64 +41 +41 опасность
перегрева
1009.5 1008.9 +21.8 +35.8
00 13.09 В 3 н/о н/о +26.3 +23.8 86 +36 +36 очень
душно
1011.9 1011.3 +21.8 +35.8
03 13.09 В 2 н/о н/о +24.9 +23.5 92 +34 +34 очень
душно
1012.5 1011.9 +21.8 +35.8
06 13.09 ЮВ 1 н/о н/о +23.3 +22.5 95 +32 +32 очень
душно
1011.1 1010.5 +21.8 +35.8
09 13.09 штиль 0 н/о н/о +22.2 +21.7 97 +29 +29 очень
душно
1011.8 1011.2 +21.8 +35.8
12 13.09 ЮВ 2 н/о н/о +28.8 +24.6 78 +41 +41 опасность
перегрева
1013.7 1013.1 +22.0 +35.8
15 13.09 В 3 н/о н/о +33.5 +23.8 57 +45 +45 опасность
перегрева
1013.6 1013.0 +22.0 +35.8
18 13.09 СВ 3 н/о н/о +34.9 +24.8 56 +48 +48 опасность
перегрева
1010.6 1010.0 +22.0 +35.9
21 13.09 СВ 2 н/о н/о +30.3 +23.2 66 +41 +41 опасность
перегрева
1010.9 1010.3 +22.0 +35.9 0.2
00 14.09 В 2 н/о н/о +27.3 +23.5 80 +37 +37 очень
душно
1011.9 1011.3 +22.0 +35.9
03 14.09 СВ 1 н/о н/о +26.1 +24.5 91 +37 +37 очень
душно
1012.4 1011.8 +22.0 +35.9
06 14.09 штиль 0 н/о н/о +25.0 +24.3 96 +35 +35 очень
душно
1011.4 1010.8 +22.0 +35.9
09 14.09 В 2 н/о н/о +25.6 +25.1 97 +37 +37 очень
душно
1011.9 1011.3 +22.0 +35.9
12 14.09 ЮВ 2 н/о н/о +29.0 +25.2 80 +42 +42 опасность
перегрева
1013.3 1012.7 +25.0 +35.9
15 14.09 З 3 н/о н/о +32.2 +24.0 62 +44 +44 опасность
перегрева
1012.2 1011.6 +25.0 +35.9
18 14.09 С 3 н/о н/о +35.0 +24.3 54 +47 +47 опасность
перегрева
1009.0 1008.4 +25.0 +36.1
21 14.09 СВ 2 н/о н/о +29.1 +24.2 75 +41 +41 опасность
перегрева
1010.3 1009.7 +25.0 +36.1
00 15.09 ЮЗ 1 н/о н/о +25.7 +24.3 92 +36 +36 очень
душно
1012.3 1011.7 +25.0 +36.1
03 15.09 штиль 0 н/о н/о +25.2 +24.3 95 +35 +35 очень
душно
1012.0 1011.4 +25.0 +36.1
06 15.09 ЮВ 1 н/о н/о +24.9 +24.2 96 +34 +34 очень
душно
1010.8 1010.2 +24.9 +36.1
09 15.09 Ю 1 н/о н/о +24.7 +24.2 97 +34 +34 очень
душно
1011.3 1010.7 +24.7 +36.1
12 15.09 Ю 2 н/о н/о +28.8 +24.8 79 +41 +41 опасность
перегрева
1012.3 1011.7 +24.5 +36.1
15 15.09 ЮВ 2 н/о н/о +34.6 +23.9 54 +46 +46 опасность
перегрева
1011.3 1010.7 +24.5 +36.1
18 15.09 СВ 1 н/о н/о +34.8 +23.2 51 +45 +45 опасность
перегрева
1007.8 1007.2 +24.5 +36.6
21 15.09 СВ 2 н/о н/о +29.8 +24.4 73 +42 +42 опасность
перегрева
1008.0 1007.4 +24.5 +36.6
00 16.09 СВ 1 н/о н/о +27.0 +24.6 87 +38 +38 очень
душно
1010.3 1009.7 +24.5 +36.6
03 16.09 штиль 0 н/о н/о +25.7 +24.5 93 +36 +36 очень
душно
1011.2 1010.6 +24.5 +36.6
06 16.09 штиль 0 н/о н/о +25.1 +24.1 94 +35 +35 очень
душно
1010.0 1009.4 +24.5 +36.6 0.2

 

Местоположение метеостанции Сен-Лоран-дю-Марони (Французская Гвиана): широта 5.50 долгота -54.03 высота над уровнем моря 9 м.

В архиве по умолчанию представлена погода в Сен-Лоран-дю-Марони за последнюю неделю. Архивные данные за месяц целиком и за предыдущие месяцы, начиная с января 2011 года, Вы можете получить, выбрав интересующий диапазон дат из раскрывающегося списка и нажав кнопку "Ввод!".


*Определитесь, кто Вы:
робот инопланетянин человек

Внимание! Время в таблицах - всемирное. Для получения местного времени необходимо прибавить поправку, которая равна -3 ч.

Смотрите также архив погоды в соседних городах и на ближайших метеорологических станциях:

Погода в Аэропорту Йохан Пенгель (Суринам) (130 км)
Погода в Парамарибо (Суринам) (132 км)
Погода на Острове Stoelmans (Суринам) (135 км)
Погода в Кайенне (Французская Гвиана) (199 км)
Погода в Марипаёле (Французская Гвиана) (208 км)
Погода в Ояпоки (Амапа, Бразилия) (305 км)
Погода в Сен-Жорже (Французская Гвиана) (306 км)
Погода в Никкери (Суринам) (336 км)
Погода в Кайетуре (Гайана) (371 км)
Погода в Нью Амстердаме (Гайана) (395 км)

Пояснения к столбцам:

Ветер - указаны скорость ветра в м/с - средняя за 10 мин, порывы в срок и между сроками (в фигурных скобках) и направление, откуда дует ветер: С - северный, СВ - северо-восточный, В - восточный, ЮВ - юго-восточный, Ю - южный, ЮЗ - юго-западный, З - западный, СЗ - северо-западный.
Видимость - горизонтальная дальность видимости в метрах или километрах. При видимости от 1 до 10 км при отсутствии осадков обычно наблюдается дымка, при ухудшении видимости до 1 км и менее - туман. В сухую погоду видимость может ухудшаться дымом, пылью или мглою.
Явления - указаны атмосферные явления, наблюдавшиеся в срок или в последний час перед сроком; фигурными скобками обозначены явления, наблюдавшиеся между сроками (за 1-3 часа до срока); квадратными скобками обозначены град или гололедные отложения с указанием их диаметра в мм.
Облачность - указаны через наклонную черту общая и нижняя облачность в баллах и высота нижней границы облаков в метрах; квадратными скобками обозначены формы облаков: Ci - перистые, Cs - перисто-слоистые, Cc - перисто-кучевые, Ac - высококучевые, As - высокослоистые, Sc - слоисто-кучевые, Ns - слоисто-дождевые, Cu - кучевые, Cb - кучево-дождевые. Подробнее классификацию облаков см. в Атласе облаков (PDF).
T - Температура воздуха - температура, измеренная на высоте 2 м над землей.
Td - Температура точки росы - температура, при понижении до которой содержащийся в воздухе водяной пар достигнет насыщения.
f - Относительная влажность воздуха - влажноcть воздуха, измеренная на высоте 2 м над землей.
Te - Эффективная температура - температура, которую ощущает одетый по сезону человек в тени. Характеристика душности погоды. При расчете учитывается влияние влажности воздуха и скорости ветра на теплоощущения человека.
Tes - Эффективная температура на солнце - температура, которую ощущает человек, с поправкой на солнечный нагрев. Характеристика знойности погоды. Зависит от высоты солнца над горизонтом, облачности и скорости ветра. Ночью, в пасмурную погоду, а также при ветре 12 м/с и более поправка равна нулю.
P - Атмосферное давление - приведенное к уровню моря атмосферное давление.
Po - Атмосферное давление - измеренное на уровне метеостанции атмосферное давление.
Tmin - Минимальная температура - минимум температуры воздуха на высоте 2 м над землей.
Tmax - Максимальная температура - максимум температуры воздуха на высоте 2 м над землей.
R - Количество осадков - Количество выпавших осадков за период времени, мм. При наведении курсора мыши на число - период времени, за который выпало указанное количество осадков.
R24 - Количество осадков - Количество выпавших осадков за 24 часа, мм.
S - Снежный покров - Высота снежного покрова, см. При наведении курсора мыши на число - состояние снежного покрова и степень покрытия местности в баллах.